Retour au catalogue

STARLINK-30162

ActifCommunicationsVLEO
NORAD 57446·PAYLOAD·🇺🇸 United States

Lancé Jul 24, 2023 depuis Cape Canaveral Space Force Station

Loading…

Prochains Passages (prochaines 24 heures)

TLE

FraisSource: CelesTrak SupGP

Époque: Sep 15, 2026, 01:45 UTC

1 57446C 23105S   26258.07340278 -.00005865  00000+0 -21253-3 0  2580
2 57446  43.0024 259.2637 0001323 257.7768 178.8600 15.27567879    14

Suivez STARLINK-30162 en temps réel avec AllMySat

Download on the App Store